FW3743 Weather Reports


Display with metric or nautical units.
time (UTC)temp
F
wind
direction
speed
MPH
gust
MPH
rain 1hr
in
rain 24hr
in
rain mn
in
humidity
%
barometer
mb
20260906052234 64 0.0 0.0 0.00 0.00 0.00 99 1015.1
20260906051232 64 0.0 0.0 0.00 0.00 0.00 99 1015.2
20260906050234 64 0.0 0.0 0.00 0.00 0.00 99 1015.0
20260906045233 64 0.0 0.0 0.00 0.00 0.00 99 1015.3
20260906044234 64 0.0 0.0 0.00 0.00 0.00 99 1015.2
20260906043352 64 0.0 0.0 0.00 0.00 0.00 99 1015.5
20260906042235 64 0.0 0.0 0.00 0.00 0.00 99 1015.4
20260906041232 64 0.0 0.0 0.00 0.00 0.00 99 1015.5
20260906040315 64 0.0 0.0 0.00 0.00 0.00 99 1015.5
20260906035234 64 0.0 0.0 0.00 0.00 0.00 99 1015.4
20260906034254 64 0.0 0.0 0.00 0.00 0.00 99 1015.2
20260906033234 64 0.0 0.0 0.00 0.00 0.00 99 1015.2
20260906032235 64 0.0 0.0 0.00 0.00 0.00 99 1014.9
20260906031234 64 0.0 0.0 0.00 0.00 0.00 99 1015.2
20260906030254 63 0.0 0.0 0.00 0.00 0.00 99 1015.0
20260906025235 63 0.0 0.0 0.00 0.00 0.00 99 1015.0
20260906024234 63 0.0 0.0 0.00 0.00 0.00 99 1014.8
20260906023234 63 0.0 0.0 0.00 0.00 0.00 99 1015.1
20260906022234 63 0.0 0.0 0.00 0.00 0.00 99 1015.0
20260906021234 63 0.0 0.0 0.00 0.00 0.00 98 1014.9
20260906020303 64 0.0 0.0 0.00 0.00 0.00 97 1014.7
20260906015234 64 0.0 0.0 0.00 0.00 0.00 97 1014.9
20260906014234 64 0.0 0.0 0.00 0.00 0.00 96 1014.6
20260906013234 65 0.0 0.0 0.00 0.00 0.00 95 1014.8
20260906012235 65 0.0 0.0 0.00 0.00 0.00 94 1014.7
20260906011234 66 0.0 0.0 0.00 0.00 0.00 94 1014.6
20260906010235 66 0.0 0.0 0.00 0.00 0.00 94 1014.5
20260906005234 66 0.0 0.0 0.00 0.00 0.00 93 1014.7
20260906004235 66 0.0 0.0 0.00 0.00 0.00 93 1014.5
20260906003254 66 0.0 0.0 0.00 0.00 0.00 93 1014.5
20260906002235 66 0.0 0.0 0.00 0.00 0.00 91 1014.4
20260906001254 67 0.0 0.0 0.00 0.00 0.00 91 1014.4
20260906000256 67 0.0 0.0 0.00 0.00 0.00 89 1014.2
20260905235234 68 0.0 0.0 0.00 0.00 0.00 88 1014.5
20260905234235 69 0.0 0.0 0.00 0.00 0.00 86 1014.2
20260905233235 69 0.0 0.0 0.00 0.00 0.00 85 1014.4
20260905232255 70 0.0 0.0 0.00 0.00 0.00 84 1014.0
20260905231234 70 0.0 0.0 0.00 0.00 0.00 82 1014.2
20260905230255 72 18 0.0 1.0 0.00 0.00 0.00 79 1013.8
20260905225234 72 0.0 0.0 0.00 0.00 0.00 79 1014.1
20260905224235 73 38 0.0 5.0 0.00 0.00 0.00 78 1014.1
20260905223234 73 324 0.0 1.0 0.00 0.00 0.00 77 1014.2
20260905222235 73 357 0.0 1.0 0.00 0.00 0.00 76 1013.9
20260905221234 74 4 3.0 12.0 0.00 0.00 0.00 76 1014.1
20260905220235 74 42 0.0 8.0 0.00 0.00 0.00 76 1013.8
20260905215254 74 354 3.0 12.0 0.00 0.00 0.00 75 1014.1
20260905214235 75 8 1.0 10.0 0.00 0.00 0.00 74 1013.4
20260905213234 75 347 0.0 1.0 0.00 0.00 0.00 74 1013.6
20260905212235 75 28 0.0 2.0 0.00 0.00 0.00 73 1013.1
20260905211234 75 10 0.0 2.0 0.00 0.00 0.00 72 1013.7
20260905210235 75 0.0 0.0 0.00 0.00 0.00 72 1013.3
20260905205234 75 2 0.0 5.0 0.00 0.00 0.00 72 1013.5
20260905204235 76 349 1.0 8.0 0.00 0.00 0.00 72 1013.3
20260905203234 76 296 2.0 11.0 0.00 0.00 0.00 72 1013.6
20260905202235 75 315 4.0 11.0 0.00 0.00 0.00 73 1013.2
20260905201235 75 352 3.0 8.0 0.00 0.00 0.00 73 1013.6
20260905200235 74 318 0.0 7.0 0.00 0.00 0.00 75 1013.2
20260905195234 76 10 3.0 10.0 0.00 0.00 0.00 73 1013.8
20260905194235 77 334 3.0 14.0 0.00 0.00 0.00 71 1013.1
20260905193254 77 357 2.0 7.0 0.00 0.00 0.00 71 1013.6
20260905192235 77 343 2.0 11.0 0.00 0.00 0.00 72 1013.0
20260905191234 73 335 3.0 8.0 0.00 0.00 0.00 76 1013.7
20260905190255 76 22 1.0 5.0 0.00 0.00 0.00 72 1013.1
20260905185254 75 8 0.0 8.0 0.00 0.00 0.00 73 1013.5
20260905184255 77 277 0.0 5.0 0.00 0.00 0.00 72 1012.9
20260905183234 76 12 0.0 1.0 0.00 0.00 0.00 73 1013.6
20260905182235 76 347 1.0 7.0 0.00 0.00 0.00 70 1013.1
20260905181234 78 0.0 0.0 0.00 0.00 0.00 70 1013.5
20260905180235 75 324 0.0 4.0 0.00 0.00 0.00 73 1013.1
20260905175234 76 15 0.0 5.0 0.00 0.00 0.00 70 1013.3
20260905174235 76 3 0.0 4.0 0.00 0.00 0.00 69 1013.1
20260905173239 76 306 3.0 12.0 0.00 0.00 0.00 69 1013.2
20260905172235 76 348 2.0 11.0 0.00 0.00 0.00 69 1013.2
20260905171254 75 320 0.0 1.0 0.00 0.00 0.00 69 1013.7
20260905170235 75 338 1.0 7.0 0.00 0.00 0.00 69 1013.3
20260905165234 76 280 0.0 7.0 0.00 0.00 0.00 71 1013.7
20260905164236 75 85 0.0 1.0 0.00 0.00 0.00 73 1013.4
20260905163314 76 0.0 0.0 0.00 0.00 0.00 73 1013.9
20260905162236 75 332 0.0 2.0 0.00 0.00 0.00 72 1013.8
20260905161254 75 353 0.0 1.0 0.00 0.00 0.00 73 1013.9
20260905160235 77 108 0.0 2.0 0.00 0.00 0.00 72 1013.5
20260905155234 75 120 1.0 5.0 0.00 0.00 0.00 73 1013.8
20260905154255 73 0.0 0.0 0.00 0.00 0.00 75 1013.6
20260905153234 75 21 0.0 4.0 0.00 0.00 0.00 74 1014.0
20260905152235 74 0.0 0.0 0.00 0.00 0.00 75 1013.8
20260905151234 74 303 0.0 1.0 0.00 0.00 0.00 76 1014.2
20260905150235 73 358 0.0 2.0 0.00 0.00 0.00 77 1013.8
20260905145234 72 1 0.0 4.0 0.00 0.00 0.00 79 1014.3
20260905144316 74 63 0.0 2.0 0.00 0.00 0.00 79 1013.8
20260905143234 71 2 0.0 4.0 0.00 0.00 0.00 83 1014.2
20260905142236 72 0.0 0.0 0.00 0.00 0.00 84 1013.8
20260905141234 71 0.0 0.0 0.00 0.00 0.00 85 1014.2
20260905140235 72 0.0 0.0 0.00 0.00 0.00 84 1013.9
20260905135234 70 0.0 0.0 0.00 0.00 0.00 87 1014.1
20260905134316 70 0.0 0.0 0.00 0.00 0.00 88 1014.2
20260905133234 70 0.0 0.0 0.00 0.00 0.00 86 1014.2
20260905132235 68 0.0 0.0 0.00 0.00 0.00 90 1014.0
20260905131234 67 0.0 0.0 0.00 0.00 0.00 93 1014.2
20260905130236 67 0.0 0.0 0.00 0.00 0.00 90 1014.1
20260905125234 68 0.0 0.0 0.00 0.00 0.00 89 1014.2
20260905124236 67 0.0 0.0 0.00 0.00 0.00 91 1014.0
20260905123234 65 0.0 0.0 0.00 0.00 0.00 94 1014.2
20260905122236 64 0.0 0.0 0.00 0.00 0.00 96 1013.9
20260905121234 63 0.0 0.0 0.00 0.00 0.00 97 1014.0
20260905120236 62 0.0 0.0 0.00 0.00 0.00 99 1013.9
20260905115235 61 0.0 0.0 0.00 0.00 0.00 99 1014.2
20260905114236 61 0.0 0.0 0.00 0.00 0.00 99 1013.7
20260905113235 61 0.0 0.0 0.00 0.00 0.00 99 1014.0
20260905112236 62 0.0 0.0 0.00 0.00 0.00 99 1013.7
20260905111234 58 0.0 0.0 0.00 0.00 0.00 99 1013.8
20260905110236 57 0.0 0.0 0.00 0.00 0.00 99 1013.5
20260905105234 57 0.0 0.0 0.00 0.00 0.00 99 1013.4
20260905104236 57 0.0 0.0 0.00 0.00 0.00 99 1013.0
20260905103234 57 0.0 0.0 0.00 0.00 0.00 99 1013.2
20260905102236 57 0.0 0.0 0.00 0.00 0.00 99 1013.0
20260905101234 57 0.0 0.0 0.00 0.00 0.00 99 1013.5
20260905100236 57 0.0 0.0 0.00 0.00 0.00 99 1012.8
20260905095254 58 0.0 0.0 0.00 0.00 0.00 99 1013.1
20260905094236 58 0.0 0.0 0.00 0.00 0.00 99 1012.6
20260905093234 57 0.0 0.0 0.00 0.00 0.00 99 1013.1
20260905092236 57 0.0 0.0 0.00 0.00 0.00 99 1012.8
20260905091314 58 0.0 0.0 0.00 0.00 0.00 99 1013.2
20260905090256 59 0.0 0.0 0.00 0.00 0.00 99 1012.8
20260905085234 59 0.0 0.0 0.00 0.00 0.00 99 1013.2
20260905084256 59 0.0 0.0 0.00 0.00 0.00 99 1013.1
20260905083234 59 0.0 0.0 0.00 0.00 0.00 99 1013.4
20260905082236 59 0.0 0.0 0.00 0.00 0.00 99 1013.1
20260905081254 59 0.0 0.0 0.00 0.00 0.00 99 1013.3
20260905080236 59 0.0 0.0 0.00 0.00 0.00 99 1013.0
20260905075234 60 0.0 0.0 0.00 0.00 0.00 99 1013.1
20260905074236 60 0.0 0.0 0.00 0.00 0.00 99 1012.9
20260905073234 61 0.0 0.0 0.00 0.00 0.00 99 1012.9
20260905072236 61 0.0 0.0 0.00 0.00 0.00 98 1012.9
20260905071234 62 0.0 0.0 0.00 0.00 0.00 98 1013.2
20260905070236 62 0.0 0.0 0.00 0.00 0.00 98 1013.0
20260905065234 62 0.0 0.0 0.00 0.00 0.00 99 1013.4
20260905064236 62 0.0 0.0 0.00 0.00 0.00 99 1013.0
20260905063314 63 0.0 0.0 0.00 0.00 0.00 98 1013.1
20260905062256 64 0.0 0.0 0.00 0.00 0.00 97 1012.9
20260905061234 64 0.0 0.0 0.00 0.00 0.00 96 1013.3
20260905060236 65 0.0 0.0 0.00 0.00 0.00 95 1013.1
20260905055234 65 0.0 0.0 0.00 0.00 0.00 95 1013.3
20260905054236 66 0.0 0.0 0.00 0.00 0.00 96 1013.1
20260905053234 66 0.0 0.0 0.00 0.00 0.00 96 1013.5